Regional Weather Roundup
Issued by NWS

Home | Current Version | Previous Version | Graphics & Text | Print | Product List | Glossary On
Versions: 1 2 3 4 5 6 7 8 9 10 11 12 13 14 15 16 17 18 19 20 21 22 23 24 25 26 27 28 29 30 31 32 33 34 35 36 37 38 39 40 41 42 43 44 45 46 47 48 49 50
000
ASUS43 KIND 261409
RWRIN

WEATHER ROUNDUP FOR INDIANA
NATIONAL WEATHER SERVICE INDIANAPOLIS IN
900 AM EST FRI DEC 26 2014

NOTE: "FAIR" INDICATES FEW OR NO CLOUDS BELOW 12,000 FEET WITH NO
SIGNIFICANT WEATHER AND/OR OBSTRUCTIONS TO VISIBILITY.

* - STATION DOES NOT REPORT WEATHER SUCH AS PRECIPITATION OR FOG.

+ - STATION NOT QUALITY CONTROLLED BY THE NATIONAL WEATHER SERVICE.
    USE DATA WITH CAUTION...ESPECIALLY DEWPOINT AND RELATIVE
    HUMIDITY OBSERVATIONS.

INZ001>003-010>013-019-020-261500-
NORTHWEST INDIANA

CITY           SKY/WX    TMP DP  RH WIND       PRES   REMARKS
KNOX *+        CLEAR     34  29  82 S9        30.07S WCI  27
LA PORTE +     CLEAR     35  34  96 S6        30.07R WCI  30
MICHIGAN CITY+ CLEAR     37  30  75 S13G18    30.06R
MONTICELLO +   CLEAR     37  33  87 S10       30.09R
RENSSELAER +   CLEAR     36  36 100 S9        30.08R
VALPARAISO     CLEAR     34  31  88 S6        30.07R WCI  29

$$

LMZ046-743>745-261500-
SOUTHERN LAKE MICHIGAN

STATION/POSITION TIME  TEMP WIND        PRES
                       AIR  DIR/SP/G
                 (UTC) (F)  (DEG/KT/KT) (MB)
MICHIGAN CITY    1400   38  160/ 15/ 19   N/A

$$

INZ004-005-014>016-021>024-261500-
NORTH CENTRAL INDIANA

CITY           SKY/WX    TMP DP  RH WIND       PRES   REMARKS
ELKHART        CLEAR     36  30  80 S6        30.08S
GOSHEN         CLEAR     36  32  85 S12       30.08S
LOGANSPORT +   CLEAR     34  32  93 S9        30.11S WCI  26
PERU/GRISSOM   CLEAR     36  36 100 S10       30.10S
ROCHESTER +    CLEAR     37  34  87 S6        30.10S
SOUTH BEND     CLEAR     36  32  85 S12       30.07S
WARSAW +       CLEAR     34  32  93 S3        30.09F

$$

INZ006>009-017-018-025>027-261500-
NORTHEAST INDIANA

CITY           SKY/WX    TMP DP  RH WIND       PRES   REMARKS
ANGOLA *+      CLEAR     30  30 100 S5        30.10R WCI  25
AUBURN +       CLEAR     34  32  93 S3        30.12S
FORT WAYNE     PTCLDY    34  31  88 S7        30.14R WCI  28
HUNTINGTON +   CLEAR     36  32  88 S6        30.12S

$$

INZ028-029-035-036-043>045-051>053-261500-
WEST CENTRAL INDIANA

CITY           SKY/WX    TMP DP  RH WIND       PRES   REMARKS
CRAWFORDSVL +  CLEAR     36  28  75 S12       30.13
GREENCASTLE +  CLEAR     37  32  81 S5        30.15R
LAFAYETTE      CLEAR     37  33  85 S6        30.11S
TERRE HAUTE    CLEAR     37  33  85 S13       30.16R

$$

INZ030>032-037>040-046>048-054>057-064-065-261500-
CENTRAL INDIANA

CITY           SKY/WX    TMP DP  RH WIND       PRES   REMARKS
ANDERSON       CLEAR     36  32  87 S13       30.16
CP ATTERBURY + CLEAR     32  32 100 MISG      30.19R
FRANKFORT +    CLEAR     36  36 100 S8        30.13R
INDIANAPOLIS   PTCLDY    34  32  92 S9        30.15R WCI  27
-EAGLE CREEK   CLEAR     31  30  96 SE3       30.15R
KOKOMO *+      CLEAR     36  32  87 S13       30.12R
MARION +       CLEAR     34  32  91 SW13G18   30.14R WCI  25
MT COMFORT *+  CLEAR     34  34 100 S8        30.16R WCI  27
SHELBYVILLE    CLEAR     36  32  85 S13       30.18R
ZIONSVILLE +   CLEAR     35  31  87 S9        30.14S WCI  27

$$

INZ033-034-041-042-049-050-058-059-261500-
EAST CENTRAL INDIANA

CITY           SKY/WX    TMP DP  RH WIND       PRES   REMARKS
MUNCIE         CLEAR     37  32  82 S10       30.15R

$$

INZ060-061-067>069-081>083-085>088-261500-
SOUTHWEST INDIANA

CITY           SKY/WX    TMP DP  RH WIND       PRES   REMARKS
EVANSVILLE     CLEAR     39  34  82 S7        30.22R
HUNTINGBURG *+ CLEAR     37  32  81 S9        30.22S
WASHINGTON +   CLEAR     37  32  84 S9        30.19R

$$

INZ062-063-066-070>080-084-089>092-261500-
SOUTH CENTRAL AND SOUTHEAST INDIANA

CITY           SKY/WX    TMP DP  RH WIND       PRES   REMARKS
BLOOMINGTON    CLEAR     37  34  89 S8        30.17R
NORTH VERNON + CLEAR     37  37 100 S12       30.22

$$



USA.gov is the U.S. government's official web portal to all federal, state and local government web resources and services.